Location: Unspecified
(0.0000°N, 0.0000°E)
Time: 12:42:02
(UTC+00:00)

A-11 Canister half - Pass Details

Date: 24 November 2019
Orbit: 1526 x 1683 km, 47.3° (Epoch: 10 December)

Event Time Altitude Azimuth Distance (km) Brightness Sun altitude
Rises 17:12:14 0° 347° (NNW) 4,735 11.5 8.1°
Reaches altitude 10° 17:16:34 10° 4° (N) 3,728 10.8 7.0°
Maximum altitude 17:22:48 19° 47° (NE) 3,024 10.1 5.6°
Drops below altitude 10° 17:28:57 10° 89° (E) 3,690 10.4 4.2°
Sets 17:33:09 0° 105° (ESE) 4,671 11.0 3.2°
